GFSMW_prec_precacc24_075.txt.gz
Total_Precipitation_Accumulation
0.20 0.28 0.29 0.37 0.43 0.37 0.53 0.40 0.35 0.27 0.20 0.23 0.16 0.18 0.14 0.14 0.11 0.08 0.10 0.16 0.20 0.12 0.03 0.00 0.00 0.00 0.01 0.00 0.01 0.01 0.01 0.01 0.02 0.02 0.00 0.00 0.00 0.00 0.00 0.00 0.00 0.00 0.00
0.03 0.07 0.10 0.16 0.19 0.40 0.87 0.76 0.51 0.45 0.18 0.14 0.09 0.08 0.17 0.20 0.13 0.13 0.12 0.17 0.24 0.21 0.07 0.02 0.02 0.01 0.01 0.02 0.02 0.03 0.04 0.03 0.02 0.04 0.02 0.01 0.00 0.00 0.00 0.00 0.00 0.00 0.00
0.01 0.00 0.01 0.03 0.04 0.14 0.32 0.34 0.25 0.41 0.66 0.56 0.79 0.63 0.57 0.44 0.42 0.34 0.25 0.25 0.22 0.23 0.19 0.14 0.14 0.10 0.16 0.17 0.18 0.14 0.14 0.08 0.02 0.01 0.02 0.01 0.00 0.00 0.00 0.00 0.00 0.00 0.00
0.00 0.00 0.00 0.00 0.00 0.01 0.06 0.20 0.57 0.80 0.90 0.97 1.34 1.77 1.93 1.69 1.34 1.19 0.86 0.64 0.52 0.51 0.54 0.58 0.59 0.56 0.53 0.37 0.22 0.13 0.09 0.06 0.02 0.00 0.00 0.01 0.02 0.02 0.00 0.00 0.00 0.00 0.00
0.00 0.00 0.00 0.00 0.00 0.00 0.00 0.04 0.22 0.34 0.53 0.69 0.73 0.89 0.83 0.76 0.72 0.63 0.66 0.67 0.70 0.71 0.74 0.77 0.67 0.49 0.31 0.16 0.07 0.03 0.01 0.00 0.01 0.00 0.00 0.01 0.01 0.01 0.02 0.01 0.00 0.00 0.00
0.00 0.00 0.00 0.00 0.00 0.00 0.00 0.00 0.05 0.09 0.19 0.29 0.36 0.52 0.57 0.61 0.55 0.45 0.40 0.40 0.34 0.29 0.31 0.31 0.30 0.22 0.15 0.08 0.03 0.01 0.01 0.00 0.01 0.01 0.02 0.01 0.00 0.00 0.00 0.01 0.00 0.00 0.00
0.00 0.00 0.00 0.00 0.00 0.00 0.00 0.00 0.00 0.02 0.07 0.22 0.25 0.33 0.33 0.27 0.29 0.34 0.32 0.35 0.31 0.23 0.23 0.21 0.19 0.18 0.14 0.08 0.03 0.01 0.01 0.01 0.01 0.02 0.02 0.03 0.03 0.02 0.02 0.02 0.02 0.01 0.01
0.00 0.00 0.00 0.00 0.00 0.00 0.00 0.00 0.00 0.00 0.00 0.06 0.11 0.17 0.21 0.17 0.18 0.23 0.22 0.20 0.22 0.26 0.36 0.47 0.43 0.31 0.26 0.20 0.06 0.02 0.01 0.01 0.02 0.02 0.02 0.03 0.03 0.03 0.05 0.05 0.05 0.04 0.01
0.00 0.00 0.00 0.00 0.00 0.00 0.00 0.00 0.00 0.00 0.00 0.00 0.00 0.01 0.04 0.09 0.10 0.10 0.09 0.10 0.13 0.15 0.15 0.12 0.09 0.08 0.06 0.05 0.03 0.00 0.00 0.00 0.01 0.01 0.01 0.01 0.01 0.02 0.03 0.04 0.05 0.08 0.06
0.00 0.00 0.00 0.00 0.00 0.00 0.00 0.00 0.00 0.00 0.00 0.00 0.00 0.00 0.00 0.00 0.01 0.02 0.03 0.04 0.03 0.02 0.02 0.00 0.00 0.00 0.00 0.00 0.00 0.00 0.00 0.00 0.00 0.00 0.00 0.00 0.00 0.00 0.00 0.00 0.02 0.03 0.05
0.00 0.00 0.00 0.00 0.00 0.00 0.00 0.00 0.00 0.00 0.00 0.00 0.00 0.00 0.00 0.00 0.00 0.00 0.00 0.00 0.00 0.00 0.00 0.00 0.00 0.00 0.00 0.00 0.00 0.00 0.00 0.00 0.00 0.00 0.00 0.00 0.00 0.00 0.00 0.00 0.00 0.00 0.01
0.00 0.00 0.00 0.00 0.00 0.00 0.00 0.00 0.00 0.00 0.00 0.00 0.00 0.00 0.00 0.00 0.00 0.00 0.00 0.00 0.00 0.00 0.00 0.00 0.00 0.00 0.00 0.00 0.00 0.00 0.00 0.00 0.00 0.00 0.00 0.00 0.00 0.00 0.00 0.00 0.00 0.00 0.00
0.00 0.00 0.00 0.00 0.00 0.00 0.00 0.00 0.00 0.00 0.00 0.00 0.00 0.00 0.00 0.00 0.00 0.00 0.00 0.00 0.00 0.00 0.00 0.00 0.00 0.00 0.00 0.00 0.00 0.00 0.00 0.00 0.00 0.00 0.00 0.00 0.00 0.00 0.00 0.00 0.01 0.01 0.00
0.00 0.00 0.00 0.00 0.00 0.00 0.00 0.00 0.00 0.00 0.00 0.00 0.00 0.00 0.00 0.00 0.00 0.00 0.00 0.00 0.00 0.00 0.00 0.00 0.00 0.00 0.00 0.00 0.00 0.00 0.00 0.00 0.00 0.00 0.00 0.00 0.00 0.00 0.01 0.01 0.01 0.01 0.00
0.00 0.00 0.00 0.00 0.00 0.00 0.00 0.00 0.00 0.00 0.00 0.00 0.00 0.00 0.00 0.00 0.00 0.00 0.00 0.00 0.00 0.00 0.00 0.00 0.00 0.00 0.00 0.00 0.00 0.00 0.00 0.00 0.00 0.00 0.00 0.00 0.02 0.02 0.02 0.01 0.00 0.00 0.01
0.00 0.00 0.00 0.00 0.00 0.00 0.00 0.00 0.00 0.00 0.00 0.00 0.00 0.00 0.00 0.00 0.00 0.00 0.00 0.00 0.00 0.00 0.00 0.00 0.00 0.00 0.00 0.01 0.01 0.00 0.00 0.00 0.00 0.00 0.00 0.01 0.02 0.02 0.02 0.01 0.01 0.00 0.00
0.00 0.00 0.00 0.00 0.00 0.00 0.00 0.00 0.00 0.00 0.00 0.00 0.00 0.00 0.00 0.00 0.00 0.00 0.00 0.00 0.00 0.00 0.00 0.00 0.00 0.00 0.00 0.02 0.01 0.01 0.00 0.00 0.00 0.00 0.00 0.01 0.01 0.02 0.00 0.01 0.00 0.00 0.00
0.00 0.00 0.00 0.00 0.00 0.00 0.00 0.00 0.00 0.00 0.00 0.00 0.00 0.00 0.00 0.00 0.00 0.00 0.00 0.00 0.00 0.00 0.00 0.00 0.00 0.00 0.00 0.01 0.00 0.00 0.00 0.00 0.00 0.00 0.00 0.00 0.00 0.01 0.00 0.00 0.00 0.00 0.00
0.00 0.00 0.00 0.00 0.00 0.00 0.00 0.00 0.00 0.00 0.00 0.00 0.00 0.00 0.00 0.00 0.00 0.00 0.00 0.00 0.00 0.00 0.00 0.00 0.00 0.00 0.00 0.00 0.00 0.00 0.00 0.00 0.00 0.00 0.00 0.00 0.00 0.01 0.00 0.00 0.00 0.00 0.00
0.00 0.00 0.00 0.00 0.00 0.00 0.00 0.00 0.00 0.00 0.00 0.00 0.00 0.00 0.00 0.00 0.00 0.00 0.00 0.00 0.00 0.00 0.00 0.00 0.00 0.01 0.00 0.00 0.00 0.00 0.00 0.00 0.00 0.00 0.00 0.01 0.00 0.00 0.00 0.00 0.00 0.00 0.00
0.00 0.00 0.00 0.00 0.00 0.00 0.00 0.00 0.00 0.00 0.00 0.00 0.00 0.00 0.00 0.00 0.00 0.00 0.00 0.00 0.00 0.00 0.00 0.00 0.00 0.00 0.00 0.00 0.00 0.00 0.00 0.00 0.00 0.00 0.00 0.00 0.00 0.00 0.00 0.00 0.00 0.00 0.00
0.00 0.00 0.00 0.00 0.00 0.00 0.00 0.00 0.00 0.00 0.00 0.00 0.00 0.00 0.00 0.00 0.00 0.00 0.00 0.00 0.00 0.00 0.00 0.00 0.00 0.00 0.00 0.00 0.00 0.00 0.00 0.00 0.00 0.01 0.01 0.00 0.00 0.00 0.00 0.00 0.00 0.00 0.00
0.00 0.00 0.00 0.00 0.00 0.00 0.00 0.00 0.00 0.00 0.00 0.00 0.00 0.00 0.00 0.00 0.00 0.00 0.00 0.00 0.00 0.00 0.00 0.00 0.00 0.00 0.00 0.00 0.01 0.00 0.00 0.00 0.00 0.00 0.00 0.00 0.00 0.00 0.00 0.00 0.00 0.00 0.00
0.00 0.00 0.00 0.00 0.00 0.00 0.00 0.00 0.00 0.00 0.00 0.00 0.00 0.00 0.00 0.00 0.00 0.00 0.00 0.00 0.00 0.00 0.00 0.00 0.00 0.00 0.00 0.00 0.00 0.00 0.00 0.00 0.00 0.00 0.00 0.00 0.00 0.00 0.00 0.00 0.00 0.00 0.00
0.00 0.00 0.00 0.01 0.01 0.01 0.00 0.01 0.01 0.02 0.03 0.02 0.02 0.01 0.01 0.01 0.01 0.01 0.02 0.01 0.00 0.01 0.00 0.00 0.00 0.00 0.00 0.00 0.01 0.00 0.00 0.00 0.00 0.00 0.00 0.00 0.00 0.00 0.00 0.00 0.00 0.00 0.00
0.00 0.00 0.02 0.06 0.12 0.15 0.15 0.12 0.08 0.07 0.05 0.05 0.03 0.04 0.02 0.02 0.03 0.03 0.04 0.06 0.04 0.04 0.02 0.02 0.01 0.00 0.01 0.01 0.01 0.00 0.00 0.00 0.01 0.00 0.00 0.00 0.00 0.00 0.00 0.00 0.01 0.01 0.01

GFSMW_prec_precacc24_081.txt.gz
Total_Precipitation_Accumulation
0.99 1.17 0.68 0.48 0.50 0.43 0.56 0.43 0.37 0.31 0.25 0.30 0.30 0.36 0.31 0.33 0.24 0.14 0.15 0.19 0.28 0.23 0.16 0.10 0.05 0.01 0.00 0.00 0.00 0.00 0.01 0.01 0.01 0.03 0.01 0.00 0.00 0.00 0.00 0.00 0.00 0.00 0.00
0.69 1.07 1.28 0.56 0.49 1.07 1.34 1.01 0.72 0.66 0.33 0.27 0.24 0.18 0.31 0.31 0.18 0.15 0.13 0.18 0.26 0.30 0.24 0.18 0.17 0.11 0.05 0.03 0.03 0.03 0.05 0.05 0.06 0.05 0.03 0.01 0.00 0.00 0.00 0.00 0.00 0.00 0.00
0.22 0.52 1.11 0.73 0.53 1.12 1.30 0.93 0.81 0.78 0.83 0.62 0.97 0.81 0.77 0.62 0.58 0.43 0.27 0.28 0.24 0.28 0.40 0.41 0.38 0.35 0.40 0.45 0.41 0.30 0.28 0.21 0.16 0.10 0.06 0.02 0.00 0.00 0.00 0.00 0.00 0.00 0.00
0.12 0.20 0.37 0.47 0.38 0.32 0.36 0.63 1.20 1.23 1.17 1.15 1.66 2.10 2.34 2.16 1.80 1.55 1.11 0.82 0.70 0.73 0.97 1.16 1.22 1.19 1.05 0.78 0.77 0.68 0.45 0.33 0.24 0.18 0.09 0.04 0.03 0.02 0.00 0.00 0.00 0.00 0.00
0.15 0.16 0.19 0.14 0.10 0.07 0.09 0.17 0.41 0.55 0.82 1.04 1.13 1.40 1.36 1.30 1.18 1.04 1.03 1.05 1.12 1.03 1.00 1.12 1.12 0.95 0.87 0.94 0.92 0.86 0.85 0.56 0.21 0.11 0.04 0.02 0.01 0.01 0.02 0.01 0.00 0.00 0.00
0.05 0.17 0.05 0.01 0.00 0.00 0.00 0.01 0.08 0.15 0.35 0.46 0.52 0.91 1.15 1.22 1.11 0.85 0.77 0.71 0.61 0.61 0.67 0.62 0.59 0.54 0.47 0.47 0.62 0.74 0.68 0.54 0.27 0.13 0.08 0.03 0.01 0.00 0.00 0.01 0.00 0.00 0.00
0.02 0.07 0.05 0.01 0.00 0.00 0.00 0.00 0.00 0.02 0.09 0.27 0.36 0.49 0.50 0.51 0.41 0.41 0.38 0.38 0.35 0.31 0.31 0.31 0.35 0.38 0.37 0.32 0.31 0.33 0.38 0.39 0.33 0.21 0.14 0.10 0.07 0.03 0.01 0.01 0.02 0.01 0.01
0.05 0.04 0.01 0.01 0.00 0.00 0.00 0.00 0.00 0.00 0.00 0.06 0.12 0.19 0.28 0.27 0.27 0.30 0.26 0.23 0.26 0.30 0.40 0.51 0.49 0.41 0.38 0.39 0.35 0.31 0.26 0.23 0.19 0.18 0.14 0.13 0.08 0.04 0.04 0.04 0.05 0.04 0.01
0.10 0.02 0.02 0.00 0.00 0.00 0.00 0.00 0.00 0.00 0.00 0.00 0.00 0.01 0.04 0.09 0.13 0.13 0.11 0.11 0.14 0.19 0.23 0.20 0.17 0.15 0.10 0.10 0.12 0.12 0.10 0.06 0.04 0.03 0.02 0.01 0.01 0.01 0.03 0.04 0.06 0.08 0.06
0.03 0.01 0.00 0.00 0.00 0.00 0.00 0.00 0.00 0.00 0.00 0.00 0.00 0.00 0.00 0.00 0.01 0.02 0.03 0.04 0.03 0.02 0.02 0.01 0.01 0.00 0.00 0.01 0.01 0.01 0.00 0.00 0.00 0.00 0.00 0.00 0.00 0.00 0.00 0.01 0.02 0.04 0.07
0.01 0.00 0.00 0.00 0.00 0.00 0.00 0.00 0.00 0.00 0.00 0.00 0.00 0.00 0.00 0.00 0.00 0.00 0.00 0.00 0.00 0.00 0.00 0.00 0.00 0.00 0.01 0.00 0.00 0.00 0.00 0.00 0.00 0.00 0.00 0.00 0.00 0.00 0.00 0.00 0.01 0.01 0.01
0.00 0.00 0.00 0.00 0.00 0.00 0.00 0.00 0.00 0.00 0.00 0.00 0.00 0.00 0.00 0.00 0.00 0.00 0.00 0.00 0.00 0.00 0.00 0.01 0.01 0.01 0.02 0.01 0.00 0.00 0.00 0.00 0.00 0.00 0.00 0.00 0.00 0.00 0.00 0.00 0.00 0.00 0.00
0.00 0.00 0.00 0.00 0.00 0.00 0.00 0.00 0.00 0.00 0.00 0.00 0.00 0.00 0.00 0.00 0.00 0.00 0.00 0.00 0.00 0.00 0.00 0.00 0.03 0.04 0.02 0.01 0.00 0.00 0.00 0.00 0.00 0.00 0.00 0.00 0.00 0.00 0.00 0.00 0.01 0.01 0.00
0.00 0.00 0.00 0.00 0.00 0.00 0.00 0.00 0.00 0.00 0.00 0.00 0.00 0.00 0.00 0.00 0.00 0.00 0.00 0.00 0.00 0.00 0.00 0.00 0.00 0.01 0.01 0.01 0.00 0.00 0.00 0.00 0.00 0.00 0.00 0.00 0.00 0.00 0.01 0.01 0.01 0.01 0.00
0.00 0.00 0.00 0.00 0.00 0.00 0.00 0.00 0.00 0.00 0.00 0.00 0.00 0.00 0.00 0.00 0.00 0.00 0.00 0.00 0.00 0.00 0.00 0.00 0.00 0.00 0.00 0.00 0.00 0.00 0.00 0.00 0.00 0.00 0.00 0.00 0.02 0.02 0.01 0.01 0.00 0.00 0.01
0.00 0.00 0.00 0.00 0.00 0.00 0.00 0.00 0.00 0.00 0.00 0.00 0.00 0.00 0.00 0.00 0.00 0.00 0.00 0.00 0.00 0.00 0.00 0.00 0.00 0.00 0.00 0.01 0.01 0.00 0.00 0.00 0.00 0.00 0.00 0.01 0.02 0.01 0.02 0.01 0.01 0.00 0.00
0.00 0.00 0.00 0.00 0.00 0.00 0.00 0.00 0.00 0.00 0.00 0.00 0.00 0.00 0.00 0.00 0.00 0.00 0.00 0.00 0.00 0.00 0.00 0.00 0.00 0.00 0.00 0.01 0.01 0.01 0.00 0.00 0.00 0.00 0.00 0.01 0.01 0.02 0.00 0.01 0.01 0.00 0.00
0.00 0.00 0.00 0.00 0.00 0.00 0.00 0.00 0.00 0.00 0.00 0.00 0.00 0.00 0.00 0.00 0.00 0.00 0.00 0.00 0.00 0.00 0.00 0.00 0.00 0.00 0.00 0.01 0.00 0.00 0.00 0.00 0.00 0.00 0.00 0.00 0.00 0.01 0.00 0.00 0.00 0.00 0.00
0.00 0.00 0.00 0.00 0.00 0.00 0.00 0.00 0.00 0.00 0.00 0.00 0.00 0.00 0.00 0.00 0.00 0.00 0.00 0.00 0.00 0.00 0.00 0.00 0.00 0.00 0.00 0.00 0.00 0.00 0.00 0.00 0.00 0.00 0.00 0.00 0.00 0.01 0.00 0.00 0.00 0.00 0.00
0.00 0.00 0.00 0.00 0.00 0.00 0.00 0.00 0.00 0.00 0.00 0.00 0.00 0.00 0.00 0.00 0.00 0.00 0.00 0.00 0.00 0.00 0.00 0.00 0.00 0.01 0.00 0.00 0.00 0.00 0.00 0.00 0.00 0.00 0.00 0.01 0.00 0.01 0.00 0.00 0.00 0.00 0.00
0.00 0.00 0.00 0.00 0.00 0.00 0.00 0.00 0.00 0.00 0.00 0.00 0.00 0.00 0.00 0.00 0.00 0.00 0.00 0.00 0.00 0.00 0.00 0.00 0.00 0.00 0.00 0.00 0.00 0.01 0.00 0.00 0.00 0.00 0.00 0.00 0.00 0.00 0.00 0.00 0.00 0.00 0.00
0.00 0.00 0.00 0.00 0.00 0.00 0.00 0.00 0.00 0.00 0.00 0.00 0.00 0.00 0.00 0.00 0.00 0.00 0.00 0.00 0.00 0.00 0.00 0.00 0.00 0.00 0.00 0.00 0.00 0.01 0.00 0.00 0.00 0.01 0.01 0.00 0.00 0.00 0.00 0.00 0.00 0.00 0.00
0.00 0.00 0.00 0.00 0.00 0.00 0.00 0.00 0.00 0.00 0.00 0.00 0.00 0.00 0.00 0.00 0.00 0.00 0.00 0.00 0.00 0.00 0.00 0.00 0.00 0.00 0.00 0.00 0.01 0.01 0.01 0.00 0.00 0.00 0.00 0.00 0.00 0.00 0.00 0.00 0.00 0.00 0.00
0.00 0.00 0.00 0.00 0.00 0.00 0.00 0.00 0.00 0.00 0.00 0.00 0.00 0.00 0.00 0.00 0.00 0.00 0.00 0.00 0.00 0.01 0.02 0.02 0.03 0.03 0.04 0.04 0.04 0.03 0.03 0.02 0.00 0.00 0.00 0.00 0.00 0.00 0.00 0.00 0.00 0.00 0.00
0.00 0.00 0.00 0.00 0.00 0.00 0.00 0.00 0.00 0.00 0.00 0.00 0.00 0.00 0.01 0.01 0.01 0.01 0.02 0.01 0.01 0.03 0.02 0.01 0.02 0.04 0.05 0.06 0.13 0.11 0.07 0.06 0.06 0.04 0.02 0.00 0.00 0.00 0.00 0.00 0.00 0.00 0.00
0.00 0.00 0.00 0.00 0.00 0.00 0.00 0.00 0.00 0.00 0.00 0.00 0.01 0.03 0.02 0.02 0.03 0.04 0.04 0.07 0.05 0.06 0.06 0.05 0.04 0.03 0.05 0.07 0.11 0.10 0.08 0.07 0.06 0.04 0.02 0.00 0.00 0.00 0.00 0.00 0.01 0.01 0.01

GFSMW_prec_precacc24_087.txt.gz
Total_Precipitation_Accumulation
1.00 1.20 0.79 0.64 0.75 0.61 0.56 0.38 0.31 0.31 0.31 0.44 0.43 0.47 0.64 0.94 0.84 0.68 0.44 0.31 0.39 0.33 0.20 0.10 0.05 0.02 0.00 0.00 0.00 0.00 0.00 0.01 0.00 0.03 0.01 0.00 0.00 0.00 0.00 0.00 0.00 0.00 0.00
0.82 1.19 1.57 0.74 0.65 1.25 1.40 1.03 0.70 0.68 0.47 0.53 0.48 0.32 0.47 0.62 0.66 0.70 0.65 0.54 0.50 0.44 0.33 0.25 0.21 0.13 0.13 0.05 0.03 0.02 0.04 0.04 0.04 0.04 0.03 0.01 0.00 0.00 0.00 0.00 0.00 0.00 0.00
0.44 0.92 1.68 1.21 1.06 1.48 1.53 1.21 1.11 0.96 0.94 0.85 1.14 0.90 0.80 0.72 0.73 0.61 0.72 0.81 0.63 0.50 0.57 0.53 0.44 0.38 0.51 0.65 0.60 0.47 0.38 0.28 0.22 0.17 0.13 0.05 0.01 0.00 0.00 0.00 0.00 0.00 0.00
0.27 0.42 0.66 1.10 1.25 0.78 0.70 1.15 1.96 2.04 1.30 1.34 1.82 2.15 2.27 2.22 1.93 1.76 1.29 1.02 0.92 0.89 1.07 1.24 1.29 1.24 1.06 0.80 0.80 0.78 0.65 0.66 0.63 0.57 0.37 0.27 0.19 0.12 0.05 0.01 0.00 0.00 0.00
0.22 0.25 0.34 0.54 0.50 0.38 0.40 0.54 0.95 1.37 1.13 1.24 1.29 1.53 1.49 1.39 1.32 1.21 1.21 1.16 1.22 1.12 1.04 1.13 1.16 1.01 0.90 0.94 0.92 0.87 0.92 0.89 0.70 0.62 0.50 0.40 0.34 0.39 0.31 0.11 0.01 0.00 0.00
0.11 0.27 0.20 0.26 0.32 0.38 0.44 0.36 0.45 0.59 0.87 0.95 0.87 1.06 1.31 1.51 1.37 1.02 0.93 0.86 0.69 0.64 0.69 0.64 0.61 0.57 0.48 0.48 0.63 0.75 0.76 0.69 0.71 0.72 0.64 0.51 0.44 0.43 0.48 0.36 0.18 0.08 0.03
0.19 0.15 0.31 0.22 0.28 0.31 0.19 0.14 0.28 0.33 0.52 0.57 0.61 0.90 0.73 0.83 0.61 0.60 0.50 0.42 0.38 0.32 0.32 0.32 0.36 0.39 0.40 0.37 0.38 0.39 0.42 0.46 0.46 0.44 0.46 0.49 0.50 0.52 0.54 0.50 0.33 0.12 0.03
0.21 0.13 0.17 0.18 0.12 0.04 0.01 0.01 0.02 0.02 0.06 0.14 0.26 0.42 0.58 0.75 0.64 0.57 0.44 0.37 0.29 0.32 0.41 0.52 0.50 0.41 0.39 0.41 0.39 0.41 0.40 0.41 0.43 0.42 0.33 0.28 0.27 0.26 0.22 0.17 0.14 0.08 0.02
0.25 0.13 0.07 0.09 0.06 0.00 0.00 0.00 0.00 0.00 0.00 0.00 0.00 0.02 0.08 0.15 0.26 0.33 0.35 0.45 0.45 0.28 0.28 0.41 0.40 0.24 0.17 0.15 0.16 0.16 0.15 0.12 0.10 0.09 0.07 0.05 0.04 0.04 0.04 0.04 0.04 0.08 0.06
0.29 0.12 0.05 0.03 0.02 0.00 0.00 0.00 0.00 0.00 0.00 0.00 0.00 0.00 0.00 0.00 0.02 0.04 0.05 0.08 0.14 0.13 0.11 0.14 0.15 0.09 0.04 0.04 0.05 0.04 0.06 0.05 0.06 0.09 0.12 0.08 0.02 0.01 0.01 0.00 0.02 0.04 0.07
0.10 0.02 0.00 0.00 0.00 0.00 0.00 0.00 0.00 0.00 0.00 0.00 0.00 0.00 0.00 0.00 0.00 0.00 0.00 0.00 0.00 0.00 0.00 0.00 0.00 0.01 0.01 0.01 0.02 0.02 0.02 0.04 0.03 0.05 0.11 0.14 0.03 0.00 0.00 0.00 0.01 0.01 0.01
0.00 0.00 0.00 0.00 0.00 0.00 0.00 0.00 0.00 0.00 0.00 0.00 0.00 0.00 0.00 0.00 0.00 0.00 0.00 0.00 0.00 0.00 0.00 0.01 0.01 0.02 0.04 0.04 0.04 0.03 0.03 0.04 0.03 0.04 0.05 0.03 0.00 0.00 0.00 0.00 0.00 0.00 0.00
0.00 0.00 0.00 0.00 0.00 0.00 0.00 0.00 0.00 0.00 0.00 0.00 0.00 0.00 0.00 0.00 0.00 0.00 0.00 0.00 0.00 0.00 0.00 0.00 0.03 0.04 0.03 0.03 0.03 0.03 0.02 0.02 0.03 0.04 0.04 0.01 0.00 0.00 0.00 0.00 0.01 0.01 0.00
0.00 0.00 0.00 0.00 0.00 0.00 0.00 0.00 0.00 0.00 0.00 0.00 0.00 0.00 0.00 0.00 0.00 0.00 0.00 0.00 0.00 0.00 0.00 0.00 0.00 0.01 0.02 0.02 0.02 0.02 0.02 0.02 0.02 0.02 0.01 0.00 0.00 0.00 0.01 0.01 0.01 0.01 0.00
0.00 0.00 0.00 0.00 0.00 0.00 0.00 0.00 0.00 0.00 0.00 0.00 0.00 0.00 0.00 0.00 0.00 0.00 0.00 0.00 0.00 0.00 0.00 0.00 0.00 0.00 0.00 0.00 0.01 0.01 0.02 0.02 0.03 0.02 0.01 0.01 0.02 0.02 0.01 0.01 0.00 0.00 0.01
0.00 0.00 0.00 0.00 0.00 0.00 0.00 0.00 0.00 0.00 0.00 0.00 0.00 0.00 0.00 0.00 0.00 0.00 0.00 0.00 0.00 0.00 0.00 0.00 0.00 0.00 0.00 0.00 0.00 0.00 0.01 0.01 0.02 0.03 0.02 0.01 0.03 0.02 0.02 0.01 0.01 0.00 0.00
0.00 0.00 0.00 0.00 0.00 0.00 0.00 0.00 0.00 0.00 0.00 0.00 0.00 0.00 0.00 0.00 0.00 0.00 0.00 0.00 0.00 0.00 0.00 0.00 0.00 0.00 0.00 0.00 0.00 0.00 0.00 0.00 0.00 0.00 0.01 0.01 0.01 0.02 0.00 0.01 0.01 0.00 0.00
0.00 0.00 0.00 0.00 0.00 0.00 0.00 0.00 0.00 0.00 0.00 0.00 0.00 0.00 0.00 0.00 0.00 0.00 0.00 0.00 0.00 0.00 0.00 0.00 0.00 0.00 0.00 0.00 0.00 0.00 0.00 0.00 0.00 0.00 0.00 0.00 0.00 0.01 0.00 0.00 0.00 0.00 0.00
0.00 0.00 0.00 0.00 0.00 0.00 0.00 0.00 0.00 0.00 0.00 0.00 0.00 0.00 0.00 0.00 0.00 0.00 0.00 0.00 0.00 0.00 0.00 0.00 0.00 0.00 0.00 0.01 0.00 0.00 0.00 0.00 0.00 0.00 0.00 0.00 0.00 0.02 0.01 0.00 0.00 0.00 0.00
0.00 0.00 0.00 0.00 0.00 0.00 0.00 0.00 0.00 0.00 0.00 0.00 0.00 0.00 0.00 0.00 0.00 0.00 0.00 0.00 0.00 0.00 0.00 0.00 0.00 0.00 0.00 0.01 0.00 0.00 0.00 0.00 0.00 0.00 0.00 0.01 0.00 0.01 0.00 0.00 0.00 0.00 0.00
0.00 0.00 0.00 0.00 0.00 0.00 0.00 0.00 0.00 0.00 0.00 0.00 0.00 0.00 0.00 0.00 0.00 0.00 0.00 0.00 0.00 0.00 0.00 0.00 0.00 0.00 0.00 0.00 0.00 0.01 0.00 0.00 0.00 0.00 0.00 0.00 0.00 0.00 0.01 0.00 0.00 0.00 0.00
0.00 0.00 0.00 0.00 0.00 0.00 0.00 0.00 0.00 0.00 0.00 0.00 0.00 0.00 0.00 0.00 0.00 0.00 0.00 0.00 0.00 0.00 0.00 0.00 0.00 0.00 0.00 0.01 0.01 0.02 0.02 0.02 0.00 0.01 0.01 0.00 0.00 0.00 0.01 0.01 0.00 0.00 0.00
0.00 0.00 0.00 0.00 0.00 0.00 0.00 0.00 0.00 0.00 0.00 0.00 0.00 0.00 0.00 0.00 0.00 0.00 0.00 0.00 0.00 0.00 0.00 0.00 0.00 0.00 0.00 0.01 0.05 0.04 0.04 0.06 0.04 0.01 0.01 0.02 0.01 0.01 0.01 0.01 0.01 0.00 0.00
0.00 0.00 0.00 0.00 0.00 0.00 0.00 0.00 0.00 0.00 0.00 0.00 0.00 0.00 0.00 0.00 0.00 0.00 0.00 0.00 0.00 0.01 0.02 0.02 0.03 0.03 0.04 0.05 0.05 0.08 0.08 0.08 0.06 0.05 0.04 0.05 0.04 0.04 0.03 0.03 0.02 0.00 0.00
0.00 0.00 0.00 0.00 0.00 0.00 0.00 0.00 0.00 0.00 0.00 0.00 0.00 0.00 0.00 0.00 0.00 0.01 0.02 0.01 0.01 0.03 0.02 0.01 0.02 0.04 0.05 0.07 0.16 0.16 0.14 0.15 0.21 0.25 0.15 0.12 0.06 0.03 0.02 0.01 0.02 0.01 0.01
0.00 0.00 0.00 0.00 0.00 0.00 0.00 0.00 0.00 0.00 0.00 0.00 0.00 0.01 0.02 0.02 0.03 0.04 0.04 0.07 0.05 0.06 0.06 0.05 0.04 0.03 0.05 0.08 0.14 0.15 0.16 0.20 0.27 0.31 0.18 0.11 0.07 0.04 0.03 0.03 0.03 0.03 0.02

GFSMW_prec_precacc24_090.txt.gz
Total_Precipitation_Accumulation
1.00 1.21 0.84 0.69 0.75 0.57 0.46 0.25 0.20 0.25 0.30 0.46 0.46 0.59 0.78 1.03 1.15 0.86 0.55 0.35 0.41 0.34 0.20 0.10 0.05 0.02 0.00 0.00 0.00 0.00 0.00 0.00 0.00 0.02 0.01 0.00 0.00 0.00 0.00 0.00 0.00 0.00 0.00
0.86 1.25 1.64 0.81 0.72 1.25 1.39 0.95 0.63 0.56 0.48 0.56 0.50 0.37 0.58 0.80 1.00 1.14 0.92 0.80 0.62 0.45 0.33 0.24 0.20 0.13 0.13 0.06 0.03 0.03 0.04 0.04 0.04 0.03 0.03 0.01 0.00 0.00 0.00 0.00 0.00 0.00 0.00
0.47 0.92 1.74 1.30 1.13 1.53 1.53 1.22 1.11 0.97 0.97 0.86 1.06 0.91 0.87 0.82 1.08 1.23 1.16 1.19 1.04 0.82 0.75 0.64 0.48 0.40 0.53 0.69 0.63 0.54 0.46 0.36 0.27 0.18 0.13 0.05 0.01 0.01 0.00 0.00 0.00 0.00 0.00
0.27 0.45 0.77 1.17 1.32 0.81 0.71 1.14 2.02 2.24 1.32 1.30 1.94 2.19 2.12 2.06 1.81 1.89 1.56 1.29 1.20 1.17 1.34 1.52 1.54 1.45 1.24 0.97 0.93 0.89 0.75 0.77 0.75 0.68 0.43 0.31 0.21 0.13 0.06 0.02 0.01 0.01 0.00
0.22 0.26 0.44 0.65 0.53 0.40 0.41 0.53 0.91 1.67 1.68 1.41 1.79 1.94 1.77 1.49 1.30 1.19 1.20 1.15 1.25 1.25 1.24 1.27 1.29 1.14 1.05 1.10 1.06 0.96 0.98 0.92 0.71 0.63 0.52 0.44 0.38 0.43 0.34 0.16 0.08 0.05 0.03
0.13 0.29 0.22 0.28 0.32 0.38 0.46 0.41 0.51 0.81 1.58 1.44 1.37 1.39 1.62 1.84 1.55 1.11 1.02 0.98 0.80 0.78 0.87 0.78 0.71 0.68 0.63 0.61 0.75 0.88 0.83 0.73 0.72 0.73 0.64 0.51 0.44 0.43 0.49 0.41 0.25 0.17 0.11
0.28 0.29 0.40 0.36 0.37 0.40 0.29 0.25 0.43 0.55 0.78 0.80 0.81 1.03 0.84 1.01 0.84 0.73 0.60 0.55 0.50 0.42 0.41 0.40 0.42 0.44 0.47 0.45 0.45 0.45 0.48 0.51 0.48 0.45 0.48 0.51 0.51 0.53 0.54 0.51 0.36 0.19 0.10
0.49 0.32 0.33 0.37 0.34 0.18 0.11 0.09 0.15 0.14 0.14 0.20 0.36 0.45 0.63 0.88 0.79 0.68 0.55 0.45 0.35 0.36 0.45 0.54 0.51 0.43 0.41 0.43 0.41 0.43 0.42 0.42 0.43 0.45 0.38 0.35 0.32 0.30 0.25 0.23 0.23 0.18 0.12
0.62 0.37 0.23 0.27 0.22 0.07 0.03 0.02 0.03 0.02 0.01 0.00 0.01 0.02 0.08 0.16 0.29 0.39 0.41 0.51 0.55 0.39 0.40 0.48 0.46 0.33 0.24 0.19 0.18 0.17 0.17 0.14 0.11 0.10 0.10 0.12 0.16 0.16 0.06 0.06 0.10 0.19 0.12
0.52 0.33 0.19 0.18 0.09 0.01 0.00 0.00 0.00 0.00 0.00 0.00 0.00 0.00 0.00 0.01 0.04 0.07 0.08 0.10 0.19 0.21 0.17 0.21 0.26 0.23 0.17 0.12 0.10 0.10 0.13 0.09 0.09 0.12 0.15 0.14 0.12 0.12 0.06 0.08 0.11 0.05 0.06
0.28 0.12 0.09 0.06 0.03 0.00 0.00 0.00 0.00 0.00 0.00 0.00 0.00 0.00 0.00 0.00 0.00 0.00 0.00 0.00 0.00 0.00 0.00 0.00 0.00 0.01 0.02 0.02 0.02 0.03 0.04 0.05 0.05 0.08 0.13 0.19 0.23 0.27 0.13 0.08 0.07 0.03 0.02
0.04 0.02 0.01 0.00 0.00 0.00 0.00 0.00 0.00 0.00 0.00 0.00 0.00 0.00 0.00 0.00 0.00 0.00 0.00 0.00 0.00 0.00 0.00 0.01 0.01 0.02 0.04 0.04 0.04 0.04 0.04 0.05 0.05 0.07 0.08 0.05 0.06 0.14 0.16 0.05 0.01 0.01 0.00
0.00 0.00 0.00 0.00 0.00 0.00 0.00 0.00 0.00 0.00 0.00 0.00 0.00 0.00 0.00 0.00 0.00 0.00 0.00 0.00 0.00 0.00 0.00 0.00 0.03 0.04 0.03 0.03 0.03 0.03 0.02 0.02 0.03 0.06 0.07 0.07 0.05 0.06 0.05 0.02 0.01 0.01 0.00
0.00 0.00 0.00 0.00 0.00 0.00 0.00 0.00 0.00 0.00 0.00 0.00 0.00 0.00 0.00 0.00 0.00 0.00 0.00 0.00 0.00 0.00 0.00 0.00 0.00 0.01 0.02 0.02 0.02 0.02 0.03 0.02 0.03 0.05 0.04 0.05 0.04 0.05 0.07 0.04 0.01 0.01 0.00
0.00 0.00 0.00 0.00 0.00 0.00 0.00 0.00 0.00 0.00 0.00 0.00 0.00 0.00 0.00 0.00 0.00 0.00 0.00 0.00 0.00 0.00 0.00 0.00 0.00 0.00 0.00 0.00 0.01 0.01 0.02 0.03 0.03 0.03 0.03 0.04 0.06 0.06 0.06 0.02 0.00 0.00 0.01
0.00 0.00 0.00 0.00 0.00 0.00 0.00 0.00 0.00 0.00 0.00 0.00 0.00 0.00 0.00 0.00 0.00 0.00 0.00 0.00 0.00 0.00 0.00 0.00 0.00 0.00 0.00 0.00 0.00 0.00 0.01 0.01 0.02 0.03 0.04 0.04 0.08 0.04 0.04 0.02 0.01 0.00 0.00
0.00 0.00 0.00 0.00 0.00 0.00 0.00 0.00 0.00 0.00 0.00 0.00 0.00 0.00 0.00 0.00 0.00 0.00 0.00 0.00 0.00 0.00 0.00 0.00 0.00 0.00 0.00 0.00 0.00 0.00 0.00 0.00 0.00 0.00 0.01 0.01 0.02 0.02 0.02 0.05 0.04 0.02 0.01
0.00 0.00 0.00 0.00 0.00 0.00 0.00 0.00 0.00 0.00 0.00 0.00 0.00 0.00 0.00 0.00 0.00 0.00 0.00 0.00 0.00 0.00 0.00 0.00 0.00 0.00 0.00 0.00 0.00 0.00 0.00 0.00 0.00 0.00 0.00 0.00 0.00 0.01 0.01 0.00 0.01 0.01 0.01
0.00 0.00 0.00 0.00 0.00 0.00 0.00 0.00 0.00 0.00 0.00 0.00 0.00 0.00 0.00 0.00 0.00 0.00 0.00 0.00 0.00 0.00 0.00 0.00 0.00 0.00 0.00 0.00 0.00 0.00 0.00 0.00 0.00 0.00 0.00 0.00 0.00 0.02 0.01 0.00 0.00 0.00 0.00
0.00 0.00 0.00 0.00 0.00 0.00 0.00 0.00 0.00 0.00 0.00 0.00 0.00 0.00 0.00 0.00 0.00 0.00 0.00 0.00 0.00 0.00 0.00 0.00 0.00 0.00 0.00 0.00 0.00 0.01 0.00 0.00 0.00 0.00 0.00 0.01 0.00 0.01 0.00 0.00 0.00 0.00 0.00
0.00 0.00 0.00 0.00 0.00 0.00 0.00 0.00 0.00 0.00 0.00 0.00 0.00 0.00 0.00 0.00 0.00 0.00 0.00 0.00 0.00 0.00 0.00 0.00 0.00 0.00 0.00 0.00 0.01 0.01 0.00 0.00 0.00 0.00 0.00 0.00 0.00 0.00 0.01 0.00 0.00 0.00 0.00
0.00 0.00 0.00 0.00 0.00 0.00 0.00 0.00 0.00 0.00 0.00 0.00 0.00 0.00 0.00 0.00 0.00 0.00 0.00 0.00 0.00 0.00 0.00 0.00 0.00 0.00 0.00 0.01 0.01 0.02 0.03 0.02 0.01 0.00 0.01 0.00 0.01 0.01 0.01 0.02 0.00 0.00 0.00
0.00 0.00 0.00 0.00 0.00 0.00 0.00 0.00 0.00 0.00 0.00 0.00 0.00 0.00 0.00 0.00 0.00 0.00 0.00 0.00 0.00 0.00 0.00 0.00 0.00 0.00 0.00 0.01 0.05 0.04 0.04 0.06 0.04 0.01 0.02 0.03 0.03 0.04 0.02 0.03 0.02 0.00 0.00
0.00 0.00 0.00 0.00 0.00 0.00 0.00 0.00 0.00 0.00 0.00 0.00 0.00 0.00 0.00 0.00 0.00 0.00 0.00 0.00 0.00 0.01 0.02 0.02 0.03 0.03 0.04 0.05 0.05 0.08 0.08 0.08 0.06 0.05 0.06 0.08 0.07 0.08 0.07 0.07 0.05 0.02 0.00
0.00 0.00 0.00 0.00 0.00 0.00 0.00 0.00 0.00 0.00 0.00 0.00 0.00 0.00 0.00 0.00 0.00 0.01 0.02 0.01 0.01 0.03 0.02 0.01 0.02 0.04 0.05 0.07 0.16 0.16 0.14 0.15 0.22 0.26 0.16 0.15 0.10 0.08 0.08 0.05 0.05 0.05 0.03
0.00 0.00 0.00 0.00 0.00 0.00 0.00 0.00 0.00 0.00 0.00 0.00 0.00 0.01 0.02 0.02 0.03 0.04 0.04 0.07 0.05 0.06 0.06 0.05 0.04 0.03 0.05 0.08 0.14 0.15 0.16 0.20 0.27 0.31 0.18 0.12 0.09 0.07 0.08 0.09 0.10 0.10 0.07